Wind_Speed
6 5 5 3 3 3 3 3 3 2 2 2 1 1 1 0 1 0 0 1 1 1 1 1 1 1 1 2 2 2 2 2 2 2 2 2 2 2 1 1 2 1 2
7 7 6 5 4 4 4 4 4 3 2 2 2 1 1 1 0 0 0 1 1 1 1 0 0 1 1 1 2 2 2 2 2 3 2 2 2 1 1 1 2 2 2
8 8 7 6 5 5 5 4 4 3 2 2 2 1 1 1 1 0 1 1 1 1 1 0 0 1 1 1 2 2 2 3 2 2 2 2 2 1 1 2 2 2 2
8 9 8 8 7 7 6 5 4 4 3 3 3 2 1 1 1 1 1 1 1 0 1 1 1 1 2 2 2 2 2 2 2 2 2 2 2 1 2 2 2 2 2
10 9 9 9 8 8 7 6 6 5 4 4 4 3 3 2 1 1 1 1 1 1 1 1 1 2 2 2 2 1 1 2 3 3 2 2 2 2 2 2 2 3 3
12 10 10 10 10 9 9 8 8 7 6 5 5 4 3 3 2 2 2 2 2 2 2 2 2 2 3 3 2 2 2 3 3 3 3 2 2 2 2 3 3 3 3
13 12 12 12 11 11 11 10 9 8 7 6 6 5 4 4 4 4 3 3 3 3 3 3 3 3 3 3 3 3 3 4 4 3 3 3 2 2 2 3 3 3 3
15 14 13 13 12 12 12 12 11 10 9 8 7 7 7 6 6 5 4 4 4 4 4 4 4 5 5 5 5 5 5 5 4 4 4 3 3 3 3 4 3 3 4
15 15 15 14 13 13 13 13 13 12 11 10 10 9 9 8 7 7 6 6 5 5 5 5 6 6 7 7 7 7 7 6 6 5 5 5 5 5 5 5 5 5 5
14 15 16 16 15 14 14 14 14 13 13 12 11 11 10 10 10 8 8 7 6 6 7 7 7 8 8 8 8 8 8 7 7 7 7 7 7 7 7 7 7 7 7
15 15 17 17 17 16 16 16 15 15 14 13 13 12 12 12 11 11 10 9 9 8 8 8 8 8 9 9 9 9 8 8 8 8 9 9 9 9 9 9 10 10 10
15 15 16 17 18 18 17 17 17 16 15 15 15 15 14 13 13 12 12 12 11 10 10 10 10 10 10 10 10 10 10 10 10 11 11 11 11 11 12 12 12 12 13
16 16 16 17 18 19 19 18 18 18 17 16 16 16 16 15 15 14 14 14 13 13 12 12 12 13 12 12 12 12 12 12 13 13 14 14 14 14 14 15 15 15 16
16 17 17 17 18 19 20 20 20 19 19 18 18 18 18 18 17 16 16 16 15 15 14 14 14 14 14 14 14 15 15 15 15 16 16 16 16 17 17 17 18 18 18
16 17 17 18 18 19 20 21 21 21 21 21 20 20 19 20 19 18 19 18 18 17 17 17 16 16 17 17 16 16 17 17 17 18 19 19 19 19 20 20 20 21 21
17 17 18 19 19 19 21 21 21 22 22 22 21 20 20 20 20 20 20 20 20 20 20 19 19 19 19 19 18 18 19 19 19 20 21 22 22 23 23 23 24 24 24
15 17 18 19 19 19 20 21 21 22 22 22 21 21 21 21 22 22 22 22 21 22 22 22 22 22 21 21 21 22 22 23 23 23 24 24 25 26 27 27 27 27 27
17 17 17 18 18 19 20 20 20 21 21 22 22 22 22 22 22 23 23 23 24 24 24 24 23 23 23 23 24 25 25 25 26 26 26 27 28 28 29 30 30 31 31
16 17 17 18 19 20 20 21 21 21 21 22 22 23 24 24 24 24 24 24 25 25 25 25 26 26 26 27 27 27 28 28 29 30 30 30 31 32 32 32 33 34 35
17 17 17 18 19 19 20 21 22 21 22 22 23 24 24 24 25 25 26 26 27 27 27 28 28 28 29 29 29 30 31 32 32 33 32 32 33 34 34 34 35 35 36
17 18 18 18 18 19 19 20 20 21 21 22 23 24 25 25 26 27 27 28 28 28 29 29 30 30 31 31 31 32 33 33 34 34 34 34 35 35 35 36 37 38 38
17 17 18 18 19 19 20 20 20 21 22 22 23 24 25 26 27 27 28 29 30 31 31 32 32 32 33 34 33 33 34 35 35 36 37 37 37 37 38 38 38 39 40
16 16 16 17 18 19 19 20 20 22 22 22 23 24 25 25 26 28 29 30 32 32 32 33 33 34 35 36 36 36 37 37 38 38 39 39 39 39 39 40 40 40 41
15 15 16 17 17 17 18 20 21 21 21 22 23 25 25 26 27 28 29 30 32 32 33 33 34 35 36 36 37 38 38 38 39 39 38 38 39 40 40 41 41 42 42
15 15 15 16 16 16 17 19 20 20 21 22 24 24 26 27 28 29 29 30 32 33 34 35 34 35 34 35 36 38 38 38 38 39 39 39 39 40 40 41 42 43 43
15 15 15 15 15 16 17 18 19 20 21 23 24 25 26 27 29 30 30 31 32 32 33 33 34 33 33 34 35 36 37 38 38 39 39 40 40 41 41 42 44 45 45
Wind_Direction
256 253 246 247 249 237 222 208 194 186 190 189 197 201 188 140 127 186 311 17 21 12 5 1 21 22 17 2 4 359 355 356 354 357 348 355 10 29 61 29 18 26 32
252 255 253 252 259 252 234 220 204 196 191 194 202 212 239 246 174 217 316 339 341 333 352 9 336 322 338 345 348 352 349 346 343 342 338 330 329 337 359 352 344 342 337
252 254 253 255 257 253 244 227 208 209 207 210 221 232 251 254 239 279 305 308 309 327 350 341 356 326 324 329 339 344 344 341 343 340 338 325 313 312 318 323 321 322 324
249 252 251 254 256 254 250 239 225 225 223 226 231 230 248 272 241 286 310 296 287 313 335 319 328 323 320 319 328 344 1 359 356 349 343 334 318 309 319 321 320 318 309
247 248 250 252 255 257 253 244 236 234 235 235 235 237 247 258 259 272 284 288 286 291 288 297 309 316 317 312 319 328 346 352 358 355 344 333 324 306 304 313 317 321 311
245 247 248 250 254 255 252 246 241 240 240 242 242 242 248 258 266 268 259 267 279 292 292 283 285 301 305 302 298 300 309 321 337 338 335 333 332 321 316 315 314 315 313
244 247 250 249 253 254 250 247 242 243 245 248 249 248 251 258 264 267 266 265 272 277 282 284 282 290 304 303 295 289 294 303 311 314 316 318 326 322 320 321 314 312 310
248 250 249 249 251 251 247 245 243 243 246 251 254 253 254 259 263 264 264 270 276 277 273 272 275 283 291 292 286 286 291 296 301 306 305 300 302 305 310 316 313 306 306
247 249 250 249 249 248 246 244 243 246 249 254 256 256 258 262 265 266 268 275 274 271 274 276 279 280 279 279 280 281 284 287 290 297 301 299 298 297 299 302 300 297 298
247 247 249 249 249 247 244 241 241 246 250 253 257 259 260 262 260 262 268 270 271 273 277 280 282 283 281 282 280 278 276 276 278 285 288 290 293 292 293 293 294 295 296
251 251 251 249 248 245 243 241 242 246 249 253 257 261 262 262 263 262 264 264 266 273 280 283 285 286 283 280 277 276 274 272 274 279 281 284 287 288 290 291 292 292 293
254 254 254 250 248 246 244 242 243 245 248 253 257 260 262 263 263 263 264 267 270 272 277 282 283 285 283 277 277 275 277 277 279 280 280 282 284 285 286 288 289 289 289
256 253 251 251 250 248 246 245 245 247 250 254 259 260 260 261 262 262 264 268 271 272 274 276 280 282 280 277 277 276 276 277 280 282 282 282 282 283 284 285 286 287 287
257 254 253 251 250 250 248 247 247 250 253 256 259 260 260 260 261 261 264 266 269 271 273 275 279 278 276 275 275 277 276 276 277 279 280 280 281 282 283 284 285 286 287
258 255 256 250 250 250 247 247 249 251 252 256 259 260 260 259 260 260 263 265 267 269 271 274 275 275 273 273 275 276 279 278 277 278 279 280 281 281 282 284 284 285 286
260 258 255 252 252 251 248 249 250 252 252 254 258 259 260 260 260 261 263 265 268 268 271 274 274 274 272 272 274 276 277 278 278 279 280 281 281 281 282 283 284 286 285
261 260 260 257 254 253 251 251 252 252 253 255 257 258 259 260 260 260 262 265 267 269 272 273 274 273 272 274 278 278 277 278 279 279 280 280 280 281 282 283 283 284 284
263 260 260 259 255 253 251 250 250 252 253 254 256 257 258 259 261 262 263 265 267 268 271 273 274 274 273 276 278 277 278 279 279 279 281 282 281 282 282 283 283 283 283
263 260 259 260 256 255 253 252 253 253 253 254 256 258 259 261 262 263 263 265 267 269 270 271 273 274 275 275 276 277 279 280 278 279 279 280 281 282 282 284 284 283 284
264 263 261 262 258 255 256 256 256 255 255 256 258 259 261 263 264 264 265 267 268 271 272 273 275 276 276 276 276 277 279 281 280 279 279 280 281 282 282 283 284 284 284
265 265 263 260 258 257 259 259 258 256 256 258 258 259 261 262 264 266 267 268 269 271 272 274 275 276 276 276 277 277 279 280 280 280 279 281 282 282 282 283 283 284 284
266 267 265 260 260 261 262 264 261 259 258 260 263 263 264 264 266 268 269 270 271 273 273 274 275 276 275 276 277 278 278 279 281 281 281 283 282 282 282 283 284 284 285
268 268 266 264 264 263 264 264 263 263 262 265 268 268 267 269 271 271 272 273 274 275 277 277 276 275 275 276 277 278 280 281 281 281 282 282 282 281 282 283 284 285 285
273 273 269 269 269 267 268 268 265 265 265 268 270 271 271 272 273 272 274 275 277 277 279 279 278 278 279 279 280 280 281 282 283 283 282 282 283 284 284 283 283 284 284
276 276 275 273 271 270 271 271 267 266 268 270 270 272 273 273 276 276 278 280 281 281 282 282 281 283 283 283 284 283 282 282 283 283 284 285 285 285 285 285 284 284 285
277 276 275 273 275 276 277 275 270 270 271 272 272 274 274 277 279 281 283 284 285 285 285 283 283 284 284 285 285 285 285 284 284 284 285 285 285 286 287 287 287 288 288
Height
5900 5901 5901 5902 5903 5903 5903 5904 5904 5905 5905 5906 5906 5907 5907 5907 5907 5907 5908 5908 5908 5909 5909 5909 5909 5910 5910 5910 5910 5910 5910 5910 5910 5910 5910 5910 5910 5909 5910 5910 5910 5910 5910
5900 5900 5901 5902 5903 5903 5904 5904 5905 5905 5906 5906 5907 5907 5907 5907 5908 5908 5908 5908 5908 5909 5909 5909 5909 5910 5910 5910 5910 5910 5910 5910 5910 5909 5909 5909 5909 5909 5909 5910 5910 5910 5910
5899 5900 5901 5902 5902 5903 5903 5904 5905 5905 5906 5906 5906 5907 5907 5907 5908 5908 5908 5908 5908 5909 5909 5909 5909 5909 5910 5910 5910 5910 5910 5910 5909 5909 5909 5909 5909 5909 5909 5909 5909 5909 5909
5898 5899 5900 5901 5902 5902 5903 5904 5905 5905 5906 5906 5906 5907 5907 5907 5908 5908 5908 5908 5908 5909 5909 5909 5909 5909 5910 5910 5910 5910 5910 5909 5909 5909 5909 5909 5909 5909 5909 5909 5909 5908 5908
5896 5897 5899 5900 5901 5902 5902 5903 5904 5904 5905 5906 5906 5907 5907 5907 5908 5908 5908 5908 5908 5909 5909 5909 5909 5909 5909 5910 5910 5909 5909 5909 5909 5909 5908 5908 5908 5908 5908 5908 5908 5908 5908
5895 5896 5897 5898 5899 5901 5902 5903 5903 5904 5905 5905 5906 5906 5907 5907 5907 5907 5908 5908 5908 5908 5909 5909 5909 5909 5909 5909 5909 5909 5909 5909 5909 5909 5908 5908 5908 5908 5907 5907 5907 5907 5907
5893 5894 5896 5896 5898 5899 5900 5901 5902 5903 5904 5905 5905 5906 5906 5906 5907 5907 5907 5907 5908 5908 5908 5908 5908 5908 5908 5908 5908 5908 5908 5908 5908 5908 5908 5907 5907 5907 5907 5906 5906 5906 5906
5890 5892 5894 5895 5896 5897 5898 5900 5901 5902 5903 5904 5904 5905 5905 5906 5906 5906 5906 5907 5907 5907 5907 5907 5908 5908 5907 5907 5907 5907 5907 5907 5907 5907 5907 5907 5906 5906 5906 5905 5905 5905 5905
5887 5889 5891 5892 5893 5894 5896 5898 5899 5900 5901 5902 5903 5903 5904 5904 5904 5905 5905 5905 5905 5906 5906 5906 5906 5906 5906 5906 5906 5906 5906 5906 5906 5906 5906 5906 5905 5905 5905 5904 5904 5904 5903
5884 5886 5888 5889 5890 5892 5893 5895 5896 5898 5899 5900 5901 5901 5902 5902 5903 5903 5904 5904 5904 5904 5904 5904 5904 5904 5903 5903 5904 5903 5903 5903 5904 5904 5904 5904 5904 5904 5903 5903 5902 5902 5901
5882 5883 5884 5886 5887 5889 5891 5892 5894 5895 5897 5898 5899 5899 5899 5900 5900 5901 5902 5902 5902 5902 5902 5902 5902 5902 5901 5901 5901 5901 5901 5901 5901 5902 5902 5901 5901 5901 5901 5900 5900 5900 5899
5878 5880 5881 5882 5884 5886 5888 5889 5891 5892 5893 5895 5896 5897 5897 5897 5898 5898 5899 5899 5900 5900 5900 5900 5900 5900 5899 5899 5899 5899 5899 5899 5899 5899 5899 5899 5898 5898 5898 5898 5897 5897 5896
5875 5876 5878 5879 5881 5882 5884 5886 5887 5889 5890 5891 5892 5893 5894 5894 5895 5895 5896 5897 5897 5897 5897 5897 5897 5897 5896 5896 5896 5896 5896 5896 5896 5896 5895 5895 5895 5895 5894 5894 5893 5893 5892
5872 5873 5874 5875 5877 5878 5880 5882 5884 5885 5886 5887 5888 5889 5890 5891 5891 5892 5893 5893 5893 5894 5894 5894 5894 5893 5893 5893 5893 5892 5892 5892 5892 5892 5892 5891 5891 5891 5890 5890 5889 5889 5888
5868 5869 5870 5871 5872 5874 5875 5877 5879 5881 5882 5883 5884 5885 5886 5886 5887 5888 5888 5889 5890 5890 5890 5890 5890 5890 5889 5889 5889 5888 5888 5888 5888 5888 5887 5887 5886 5886 5885 5885 5884 5883 5882
5864 5865 5865 5867 5868 5869 5871 5873 5874 5876 5877 5878 5879 5880 5881 5882 5883 5883 5884 5885 5885 5885 5885 5885 5886 5885 5885 5884 5884 5884 5883 5883 5883 5883 5882 5882 5881 5880 5879 5879 5878 5877 5876
5860 5860 5861 5862 5863 5864 5866 5867 5869 5871 5872 5873 5875 5876 5876 5877 5878 5878 5879 5879 5880 5880 5880 5880 5880 5880 5879 5879 5879 5878 5878 5877 5877 5877 5876 5875 5875 5874 5873 5872 5871 5870 5869
5856 5856 5857 5857 5858 5860 5861 5863 5864 5866 5867 5868 5869 5870 5871 5872 5872 5873 5873 5874 5874 5874 5874 5874 5874 5873 5873 5873 5873 5872 5871 5871 5871 5870 5870 5869 5868 5867 5866 5864 5863 5862 5861
5852 5852 5852 5853 5854 5856 5857 5858 5859 5860 5862 5863 5864 5865 5866 5866 5867 5867 5868 5868 5868 5868 5868 5868 5868 5867 5867 5867 5866 5865 5864 5864 5863 5863 5862 5861 5860 5858 5857 5856 5854 5853 5851
5848 5848 5848 5849 5850 5851 5852 5853 5854 5855 5856 5857 5858 5859 5860 5860 5861 5861 5861 5862 5862 5862 5862 5861 5861 5860 5860 5859 5859 5858 5857 5856 5855 5854 5854 5853 5851 5850 5848 5847 5845 5844 5842
5843 5844 5844 5845 5846 5847 5847 5848 5849 5850 5851 5852 5852 5853 5854 5854 5854 5855 5855 5855 5855 5855 5855 5854 5854 5853 5852 5852 5851 5850 5849 5848 5847 5845 5844 5843 5842 5841 5839 5837 5835 5834 5832
5839 5839 5840 5840 5841 5842 5842 5843 5844 5845 5845 5846 5846 5847 5848 5848 5848 5848 5848 5848 5848 5847 5847 5846 5846 5845 5844 5843 5842 5841 5840 5839 5838 5837 5834 5833 5831 5830 5828 5827 5825 5823 5820
5835 5835 5836 5836 5837 5837 5838 5838 5839 5839 5840 5840 5841 5841 5841 5841 5841 5841 5841 5841 5840 5839 5838 5838 5837 5836 5835 5834 5833 5832 5830 5829 5828 5826 5824 5823 5820 5818 5817 5815 5813 5811 5809
5831 5832 5832 5832 5833 5833 5833 5833 5834 5834 5835 5835 5835 5835 5835 5835 5835 5834 5833 5833 5832 5831 5830 5829 5828 5827 5825 5824 5823 5822 5820 5819 5817 5815 5813 5812 5810 5808 5805 5803 5801 5799 5796
5828 5828 5828 5828 5828 5829 5829 5829 5828 5829 5829 5829 5829 5829 5829 5829 5828 5827 5826 5825 5824 5823 5821 5820 5819 5817 5816 5815 5813 5811 5810 5808 5806 5804 5802 5800 5798 5796 5794 5791 5788 5785 5783
5824 5824 5824 5824 5825 5824 5824 5824 5824 5824 5824 5823 5823 5823 5822 5822 5821 5820 5819 5818 5816 5814 5813 5811 5810 5808 5806 5805 5803 5801 5799 5797 5795 5793 5791 5788 5786 5784 5782 5779 5775 5772 5769